sat.trackr.live / text

‹ back to catalog

STARLINK-35393

NORAD 65827 · 2025-221E

PAYLOAD ACTIVE UNKNOWN

§ Identity

Operator
Country
US
Launch date
2025-09-29
Launch site
AFWTR
Launch vehicle
Mass (kg)
RCS (m²)

Purposes: comms

External: N2YO · Heavens-Above · Gunter

§ Orbital elements

Epoch: 2026-05-25T02:59:48.163200Z

Period
93.85 min
Inclination
53.1597°
Eccentricity
0.0001134
Mean motion
15.34402392 rev/d
Perigee alt
461.9 km
Apogee alt
463.5 km
Semi-major
6,840.8 km
B*
6.7011e-4
RAAN
92.7640°
Arg perigee
78.4603°
Mean anomaly
281.6527°
Rev number
3,779

§ Raw data

STARLINK-353931 65827U 25221E   26145.12486300  .00022333  00000+0  67011-3 0  99922 65827  53.1597  92.7640 0001134  78.4603 281.6527 15.34402392 37795

JSON: /api/v1/satellites/65827 · /tle

For live sub-satellite position, see the globe view (requires WebGL).

§ Visibility from observer

Set your observer location to see the next 7 days of passes ≥ 10°. The values pass through the URL so the page stays shareable.

No JS? Fill the form by hand. The geolocation button needs JavaScript.